Regional Weather Roundup
Issued by NWS

Home | Current Version | Previous Version | Text Only | Print | Product List | Glossary On
Versions: 1 2 3 4 5 6 7 8 9 10 11 12 13 14 15 16 17 18 19 20 21 22 23 24 25 26 27 28 29 30 31 32 33 34 35 36 37 38 39 40 41 42 43 44 45 46 47 48 49 50
000
ASUS42 KFFC 040803
RWRGA
WEATHER ROUNDUP FOR GEORGIA
NATIONAL WEATHER SERVICE PEACHTREE CITY GA
400 AM EDT FRI SEP 04 2015

NOTE: "FAIR" INDICATES FEW OR NO CLOUDS BELOW 12,000 FEET WITH NO
SIGNIFICANT WEATHER AND/OR OBSTRUCTIONS TO VISIBILITY.

* = USE WITH CAUTION. THE STATIONS MARKED WITH AN ASTERISK MAY NOT
REPORT WEATHER SUCH AS PRECIPITATION, FOG, OR THUNDER AND ARE NOT
QUALITY CONTROLLED BY NWS.

THE REMARK "TC" DENOTES TEMPERATURE READING IN DEGREES CELSIUS.

GAZ001>058-040900-
NORTH GEORGIA

CITY           SKY/WX    TMP DP  RH WIND       PRES   REMARKS
ATLANTA        MOCLDY    71  66  84 NW5       29.98R
ATHENS         CLEAR     71  68  90 CALM      29.96S
CHAMBLEE       CLEAR     69  68  96 CALM      29.98R
PEACHTREE CITY MOCLDY    67  66  97 CALM      29.98S
ROME           CLEAR     66  65  96 CALM      29.97R
WEST ATLANTA   CLEAR     68  66  93 NE3       29.97S
GAINESVILLE    CLEAR     71  68  90 W3        30.00S
CARTERSVILLE   CLEAR     65  65 100 CALM      29.98S


CITY           SKY/WX    TMP DP  RH WIND       PRES   REMARKS
DALTON*        CLEAR     66  66 100 CALM      29.98R
MARIETTA       CLEAR     68  68  99 W5        29.98S
BLAIRSVILLE*   HAZE      63  56  77 CALM      30.05R VSB 1/2
$$

GAZ059>098-102>109-040900-
CENTRAL GEORGIA

CITY           SKY/WX    TMP DP  RH WIND       PRES   REMARKS
AUGUSTA-BUSH   FOG       71  71 100 CALM      29.92S VSB 1/4
AUGUSTA-DANIEL CLEAR     77  74  90 CALM      29.94R
COLUMBUS       CLEAR     73  71  93 CALM      29.96R
MACON          CLEAR     71  70  96 CALM      29.95S
ROBINS AFB     CLEAR     73  72  97 CALM      29.94R


CITY           SKY/WX    TMP DP  RH WIND       PRES   REMARKS
LAGRANGE*      CLEAR     72  72 100 CALM      29.98S
MILLEDGEVILLE* CLEAR     73  72  94 CALM      29.95R FOG
$$

GAZ099>101-110>166-040900-
SOUTH GEORGIA

CITY           SKY/WX    TMP DP  RH WIND       PRES   REMARKS
SAVANNAH       PTCLDY    77  75  93 CALM      29.92F
VALDOSTA       MOCLDY    75  73  93 CALM      29.93F
ALMA           PTCLDY    76  75  97 CALM      29.93S
ST SIMONS      PTCLDY    76  76 100 CALM      29.92S
FT STEWART     PTCLDY    77  75  95 CALM      29.90S
ALBANY         PTCLDY    75  71  87 CALM      29.96S
HUNTER AFB     PTCLDY    77  77 100 CALM      29.90S
MOODY AFB      CLOUDY    75  72  90 NW2       29.92F
BRUNSWICK      PTCLDY    73  72  94 CALM      29.93S


CITY           SKY/WX    TMP DP  RH WIND       PRES   REMARKS
BAINBRIDGE*    CLEAR     72  70  94 CALM      29.95S
MOULTRIE*      PTCLDY    73  72  94 CALM      29.95S
VIDALIA*       PTCLDY    75  73  94 CALM      29.94S
WAYCROSS*      PTCLDY    78  78  99 CALM      29.93S
DOUGLAS*       PTCLDY    77  75  94 CALM      29.95S
$$


USA.gov is the U.S. government's official web portal to all federal, state and local government web resources and services.